Showing default

KUIPER-00425, 68934

Orbit data source: Space-Track

KUIPER-00425, 68934 is a payload satellite owned by Kuiper Systems (US) in LEO that was launched on Thu, 30 Apr 2026 UTC via an ARIANE 64 launch vehicle from the French Guiana (FRGUI). Payload-class satellites include a variety of spacecraft equipped with specific instruments for various scientific and technological missions. These include communications satellites like Starlink; space stations such as the ISS; scientific satellites like the Hubble; Earth observation satellites from companies like Planet Labs, Umbra, and HawkEye 360; GPS; miniature CubeSats for education and research; and military/defense satellites.

Loading next visibility...
Identifier
68934, 2026-098R
Orbit
LEO
Country
Flag of USUS
Related business
Manufacturer
Kuiper Systems
Mission
Operational spacecraft
Bus & Motor
KUIPER, Unknown motor
Mass
~490 kg wet, ~490 kg dry
Launch date (UTC)
2026-04-30 (2 months ago)
Launch vehicle
ARIANE 64
Launch site
French Guiana (FRGUI)
Object type
Payload
Rocket body
Debris
Shape & HBR
Unknown shape, 3.4 m
Radar Cross Section
Large (>1 m²)

Expand to show TLE details & history
Last TLE update: 10 hours ago

TLE from 10 hours ago
0 KUIPER-00425
1 68934U 26098R   26171.41668980 -.00005061  00000-0 -17326-3 0  9990
2 68934  51.8734  53.8159 0017128 159.7047  94.4462 15.27196452  5043
Epoch: 2026-06-20T10:00Z
TLE epoch observation values (Epoch: 2026-06-20T10:00:01.998Z)
Latitude
-49.40974°
Longitude
-119.18452°
Altitude
502.007 km
Speed
7.613 km/s
True Right ascension
19h 57m 49s
True Declination
-49° 14' 00"
Sunlit
Object was in full shadow at epoch
Visualization orbit readout
Latitude
Unknown
Longitude
Unknown
Altitude
Unknown
Speed
Unknown
Apparent Right ascension
Unknown
Apparent Declination
Unknown
Sunlit
N/A
Visualization observer readout
Local Sidereal Time
07:14:19
Azimuth
Unknown
Elevation
Unknown
Doppler factor
Unknown
Orbital elements
Apogee altitude
496.417 km
Perigee altitude
472.908 km
Semi-major axis
6,862.8 km
Eccentricity
0.00171
Inclination
51.8734°
RAAN
53.8159°
Arg. of periapsis
159.7047°
True anomaly
94.64185°
Mean anomaly
94.4462°
Eccentric anomaly
94.54403°
Mean motion
3.81761 °/min
Orbital period
94.3 mins
BSTAR
-0.00017326
Loading maneuver chart data...
Computing Atmospheric mass density...
Loading historical data...
Loading historical data...
Loading historical data...
Loading historical data...
Loading historical data...
Loading historical data...
Loading historical data...

Documentation

Showing up to 5 results
|